[[{"header":{"parameterUnit":"m.s-1","parameterCategory":1,"la1":30.2992,"la2":30.254,"lo1":-89.0895,"lo2":-89.0443,"dy":0.0025,"dx":0.0025,"nx":19,"ny":19,"refTime":"2026-05-05T09:00:00:Z","depth":0,"parameterNumber":2,"parameterNumberName":"U-component_of_WINDS"},"data":[0,0,0,-1.6365,-1.6365,-1.6385,-1.6385,-1.6416,-1.6416,0,0,0,0,0,0,0,0,0,0,0,-1.6362,-1.6363,-1.6365,-1.6365,-1.6385,-1.6385,-1.6416,-1.6416,0,0,0,0,0,0,0,0,0,0,0,-1.6362,-1.6363,-1.6363,-1.6365,-1.6385,-1.6385,-1.6416,-1.6399,0,0,0,0,0,0,0,0,0,0,-1.6379,-1.638,-1.6362,-1.6363,-1.6366,-1.6385,-1.6385,-1.6398,-1.64,-1.6409,0,-1.6418,0,-1.6418,-1.6418,-1.6419,0,0,0,-1.6363,-1.6378,-1.638,-1.6363,-1.6366,-1.6385,-1.6375,-1.6399,-1.6401,-1.6412,-1.6419,-1.642,-1.6418,-1.6419,-1.6419,-1.6479,-1.6479,0,0,-1.6362,-1.6368,-1.6379,-1.6382,-1.6379,-1.6375,-1.6376,-1.64,-1.6408,-1.6419,-1.642,-1.6419,-1.6419,-1.6419,-1.6479,-1.6479,0,0,0,-1.636,-1.6367,-1.6368,-1.6381,-1.6384,-1.6375,-1.6377,-1.6407,-1.6407,-1.6421,-1.6419,-1.6419,-1.642,-1.6478,-1.6479,-1.6502,0,0,0,-1.636,-1.6366,-1.6368,-1.6372,-1.6383,-1.6396,-1.6383,-1.6405,-1.6408,-1.6419,-1.6419,-1.642,-1.6478,-1.6478,-1.65,-1.6511,0,0,0,-1.636,-1.6366,-1.637,-1.6372,-1.638,-1.6395,-1.6396,-1.6406,-1.6407,-1.6419,-1.642,-1.6477,-1.6478,-1.6499,-1.6509,-1.6528,0,0,0,-1.6362,-1.6391,-1.637,-1.6402,-1.638,-1.6409,-1.6396,-1.6418,-1.643,-1.6419,-1.6478,-1.6479,-1.6498,-1.6508,-1.6526,-1.6543,-1.6551,0,0,-1.6402,-1.6396,-1.6414,-1.6396,-1.643,-1.6406,-1.6443,-1.645,-1.6447,-1.6469,-1.647,-1.6501,-1.6509,-1.6527,-1.6596,-1.6602,0,0,0,-1.6429,-1.6442,-1.645,-1.6462,-1.6467,-1.6473,-1.6474,-1.6476,-1.6494,-1.6459,-1.6513,-1.6518,-1.6528,-1.6536,-1.6541,-1.655,-1.6483,-1.6483,-1.6483,-1.6493,-1.6486,-1.6516,-1.6511,-1.6523,-1.6523,-1.6532,-1.6536,-1.6527,-1.654,-1.6545,-1.6588,-1.6597,-1.6601,-1.661,-1.6555,-1.6555,-1.6555,-1.6555,-1.6549,-1.6566,-1.6552,-1.6576,-1.6569,-1.6589,-1.6591,-1.6584,-1.6601,-1.6583,-1.6592,-1.6571,-1.6608,-1.6615,-1.6557,-1.6557,-1.6557,-1.6557,-1.6556,-1.6589,-1.6596,-1.6598,-1.6614,-1.6627,-1.6623,-1.664,-1.6634,-1.6628,-1.6637,-1.6642,-1.6641,-1.6639,-1.664,-1.664,-1.664,-1.6641,-1.6641,-1.6641,-1.6628,-1.663,-1.6645,-1.6653,-1.6659,-1.6667,-1.6668,-1.6674,-1.668,-1.6674,-1.6674,-1.6663,-1.6614,-1.66,-1.6643,-1.6643,-1.6642,-1.6642,-1.6642,-1.6686,-1.6672,-1.6694,-1.6701,-1.6709,-1.6723,-1.6715,-1.6728,-1.6733,-1.6741,-1.6729,-1.6694,-1.6688,-1.6683,-1.6672,-1.6731,-1.6731,-1.6731,-1.6731,-1.6718,-1.6715,-1.6736,-1.6746,-1.6756,-1.6751,-1.6777,-1.6778,-1.6777,-1.6779,-1.677,-1.6756,-1.6752,-1.6748,-1.6742,-1.6731,-1.6804,-1.6804,-1.6804,-1.6752,-1.6749,-1.6772,-1.677,-1.6776,-1.6782,-1.6806,-1.6819,-1.6815,-1.6807,-1.6781,-1.6778,-1.6754,-1.6747,-1.6737,-1.6728,-1.6709,0,0]},{"header":{"parameterUnit":"m.s-1","parameterCategory":1,"la1":30.2992,"la2":30.254,"lo1":-89.0895,"lo2":-89.0443,"dy":0.0025,"dx":0.0025,"nx":19,"ny":19,"refTime":"2026-05-05T09:00:00:Z","depth":0,"parameterNumber":3,"parameterNumberName":"V-component_of_WINDS"},"data":[0,0,0,4.8739,4.8738,4.8707,4.8707,4.8669,4.8669,0,0,0,0,0,0,0,0,0,0,0,4.8751,4.8751,4.8739,4.8738,4.8707,4.8707,4.8669,4.8669,0,0,0,0,0,0,0,0,0,0,0,4.8751,4.8751,4.875,4.8738,4.8707,4.8707,4.8669,4.8691,0,0,0,0,0,0,0,0,0,0,4.8721,4.8735,4.8751,4.875,4.8738,4.8707,4.8707,4.8692,4.869,4.8684,0,4.8682,0,4.8675,4.8666,4.8666,0,0,0,4.8735,4.8737,4.8727,4.875,4.8738,4.8707,4.872,4.8691,4.8688,4.8681,4.8681,4.868,4.8674,4.8666,4.8666,4.8651,4.8651,0,0,4.8737,4.8746,4.8729,4.8725,4.8733,4.8721,4.8719,4.8689,4.8689,4.8681,4.8679,4.8674,4.8666,4.8666,4.8651,4.8651,0,0,0,4.8744,4.8747,4.8737,4.8727,4.8721,4.8721,4.8718,4.869,4.8687,4.8678,4.8673,4.8666,4.8665,4.8651,4.8651,4.8666,0,0,0,4.8745,4.8751,4.8738,4.8743,4.8722,4.8706,4.872,4.8689,4.8685,4.8674,4.8666,4.8665,4.8651,4.8651,4.8665,4.867,0,0,0,4.8752,4.8752,4.8749,4.8744,4.8731,4.8706,4.8701,4.8688,4.8682,4.8666,4.8665,4.8651,4.8651,4.8665,4.8669,4.8671,0,0,0,4.8761,4.8758,4.8749,4.8745,4.8732,4.8716,4.8701,4.8688,4.8676,4.8666,4.8651,4.8651,4.8664,4.8668,4.867,4.8674,4.8676,0,0,4.8762,4.8759,4.8756,4.8747,4.8736,4.872,4.871,4.8689,4.8677,4.866,4.866,4.8665,4.8669,4.867,4.8686,4.8688,0,0,0,4.8759,4.8757,4.8752,4.8744,4.873,4.872,4.87,4.8693,4.8679,4.8671,4.8666,4.8667,4.8668,4.8669,4.8671,4.8671,4.8652,4.8652,4.8652,4.8772,4.8762,4.8757,4.8744,4.8736,4.8719,4.8711,4.8698,4.8685,4.8685,4.8679,4.8691,4.8693,4.8694,4.8695,4.868,4.868,4.8681,4.8681,4.8774,4.877,4.8761,4.8752,4.8741,4.8733,4.8717,4.871,4.8701,4.8693,4.8692,4.8685,4.8697,4.8697,4.8681,4.8681,4.8681,4.8681,4.8681,4.8781,4.8778,4.8772,4.8762,4.8755,4.8742,4.8735,4.8724,4.8713,4.8713,4.8708,4.8708,4.8707,4.8712,4.8712,4.8712,4.8712,4.8712,4.8712,4.8791,4.8785,4.8782,4.8771,4.8767,4.8759,4.8745,4.8739,4.873,4.8722,4.8722,4.8712,4.87,4.8698,4.8713,4.8713,4.8712,4.8712,4.8712,4.8796,4.8795,4.879,4.8786,4.8775,4.8771,4.8759,4.875,4.8743,4.8741,4.8732,4.8725,4.8719,4.8717,4.8715,4.8734,4.8734,4.8734,4.8734,4.8802,4.88,4.8796,4.8791,4.8784,4.8775,4.8771,4.8761,4.8749,4.8745,4.8741,4.8738,4.8737,4.8732,4.873,4.8728,4.8749,4.8749,4.8749,4.8806,4.8804,4.8802,4.8795,4.8787,4.878,4.8777,4.877,4.8757,4.8749,4.8742,4.8742,4.8736,4.8734,4.8724,4.8722,4.8718,0,0]}]]